www.pogodaiklimat.ru

Погода и климат >> Архив погоды >> Алжир >> Аэропорт Messali El Hadj


ПОГОДА в Аэропорту Messali El Hadj

  • Прогноз погоды в Аэропорту Messali El Hadj
  • Монитор погоды в Аэропорту Messali El Hadj

АРХИВ ПОГОДЫ в Аэропорту Messali El Hadj

Время (UTC), дата Ветер
(напр.,м/с)
 
Видим.   Явления Облачность Т
(С)
Тd
(С)
f
(%)
Тe
(С)
Тes
(С)
Комфортность P
(гПа)
Po
(гПа)
Тmin
(С)
Tmax
(С)
R
(мм)
R24
(мм)
S
(см)
03 16.08 штиль 0 10 км ясно +20.7 +17.2 80 +24 +24 комфорт 1016.3 987.5
06 16.08 штиль 0 15 км ясно +19.2 +16.9 87 +21 +21 комфорт 1016.3 987.4 +19.1
09 16.08 С 1 15 км ясно +27.0 +18.6 60 +32 +45 очень
душно
1016.7 988.5
12 16.08 С 6 20 км ясно +32.5 +19.3 46 +38 +45 очень
душно
1015.0 987.4
15 16.08 С 6 20 км ясно +31.0 +17.9 46 +35 +40 очень
душно
1014.2 986.4
18 16.08 С 4 20 км ясно +28.8 +16.1 46 +32 +32 душно 1014.2 986.2 +33.4
21 16.08 штиль 0 15 км ясно +24.2 +19.7 76 +29 +29 душно 1015.6 987.2
00 17.08 штиль 0 15 км ясно +21.3 +19.7 91 +26 +26 душно 1015.7 987.0
03 17.08 штиль 0 2000 м дымка 6/6 300 м
[St]
+19.9 +18.8 93 +23 +23 комфорт 1015.3 986.5
06 17.08 штиль 0 4000 м дымка 6/6 300 м
[St]
+20.2 +19.3 95 +24 +24 комфорт 1015.7 986.9 +19.2
09 17.08 С 1 8000 м 3/3 300 м
[St]
+25.7 +20.7 74 +32 +40 очень
душно
1015.7 987.4
12 17.08 С 4 20 км ясно +33.1 +19.2 44 +38 +51 опасность
солнечного
удара
1013.8 986.2
15 17.08 С 6 20 км 1/1 800 м
[Cu med, cong]
+32.9 +20.5 48 +40 +43 очень
душно
1012.1 984.6
18 17.08 С 6 20 км 1/1 800 м
[Cu med, cong]
+28.6 +20.4 61 +35 +35 очень
душно
1011.5 983.6 +33.5
21 17.08 С 1 20 км 1/1 800 м
[Cu med, cong]
+24.8 +20.5 77 +31 +31 очень
душно
1012.7 984.4
00 18.08 С 1 10 км 1/1 800 м
[Cu med, cong]
+23.1 +20.6 86 +30 +30 очень
душно
1012.6 984.2
03 18.08 З 1 8000 м 3/3 300 м
[St]
+22.3 +21.1 93 +29 +29 очень
душно
1011.7 983.2
06 18.08 штиль 0 7000 м 4/4 300 м
[St]
+21.8 +20.9 95 +28 +28 душно 1012.1 983.5 +21.4
09 18.08 штиль 0 10 км 4/3 900 м
[Sc Ci sp]
+28.8 +21.0 63 +36 +45 очень
душно
1012.9 985.0
12 18.08 С 5 10 км 4/3 800 м
[Cu med, cong Ci sp]
+33.0 +21.5 51 +41 +48 опасность
перегрева
1012.6 985.1
15 18.08 С 5 10 км 5/4 800 м
[Cu med, cong Ci sp]
+30.6 +21.2 57 +38 +41 очень
душно
1012.4 984.7
18 18.08 С 3 10 км 3/3 800 м
[Cu med, cong]
+29.2 +20.5 59 +36 +36 очень
душно
1012.2 984.3 +33.6
21 18.08 штиль 0 10 км 1/1 800 м
[Cu med, cong]
+25.4 +18.7 66 +30 +30 душно 1014.0 985.7
00 19.08 штиль 0 10 км ясно +22.4 +17.4 73 +27 +27 душно 1014.6 986.0
03 19.08 С 1 10 км ясно +21.2 +14.0 63 +24 +24 комфорт 1013.7 985.0
06 19.08 штиль 0 15 км ясно +19.8 +13.0 65 +21 +22 комфорт 1014.5 985.7 +19.6
09 19.08 штиль 0 15 км ясно +31.4 +13.4 33 +32 +46 жарко 1014.4 986.7
12 19.08 СЗ 4 20 км ясно +35.3 +10.6 22 +34 +47 очень
жарко
1013.6 986.2
15 19.08 С 5 20 км ясно +34.3 +9.6 22 +33 +39 жарко 1012.3 984.9
18 19.08 С 4 15 км 1/1 800 м
[Cu med, cong]
+31.3 +12.4 31 +32 +32 жарко 1012.3 984.6 +35.6
21 19.08 штиль 0 15 км ясно +25.8 +11.7 41 +27 +27 жарко 1014.2 986.0
00 20.08 ЮВ 2 10 км ясно +23.3 +11.4 47 +26 +26 жарко 1014.6 986.1
03 20.08 штиль 0 10 км ясно +20.8 +9.9 50 +22 +22 комфорт 1014.2 985.5
06 20.08 штиль 0 15 км ясно +20.1 +10.3 53 +21 +22 комфорт 1014.8 986.0 +19.5
09 20.08 З 1 20 км ясно +29.3 +11.3 33 +30 +41 жарко 1015.3 987.4
12 20.08 С 5 20 км ясно +33.5 +8.7 22 +32 +42 жарко 1014.5 987.0
15 20.08 С 7 20 км ясно +31.9 +12.4 30 +32 +35 жарко 1014.2 986.5
18 20.08 С 4 20 км ясно +29.4 +13.8 38 +31 +31 жарко 1014.2 986.3 +34.4
21 20.08 С 3 15 км 1/0
[Ci sp]
+23.3 +17.1 68 +28 +28 душно 1016.1 987.6
00 21.08 штиль 0 10 км 6/6 300 м
[St]
+21.7 +19.2 86 +27 +27 душно 1015.5 986.8
03 21.08 штиль 0 8000 м 3/3 300 м
[St]
+21.0 +18.8 87 +25 +25 комфорт 1015.7 987.0
06 21.08 штиль 0 8000 м 4/4 300 м
[Cu med, cong]
+19.8 +18.0 89 +22 +22 комфорт 1015.9 987.0 +19.4
09 21.08 З 1 10 км 3/3 800 м
[Cu med, cong]
+26.8 +19.4 64 +32 +40 очень
душно
1016.1 987.9
12 21.08 С 3 15 км 1/1 800 м
[Cu med, cong]
+31.3 +18.9 48 +37 +50 очень
душно
1014.3 986.6
15 21.08 С 6 15 км 1/1 800 м
[Cu med, cong]
+30.4 +20.6 56 +37 +41 очень
душно
1013.8 986.0
18 21.08 С 5 15 км 4/4 800 м
[Cu med, cong]
+27.3 +21.3 70 +35 +35 очень
душно
1014.2 986.1 +32.0
21 21.08 СВ 4 15 км 6/3 800 м
[Cu med, cong Ac trans Ci sp]
+25.5 +20.1 72 +31 +31 очень
душно
1015.5 987.2
00 22.08 СЗ 1 15 км 6/4 800 м
[Cu med, cong Ac trans Ci sp]
+24.9 +19.8 73 +30 +30 душно 1017.0 988.6
03 22.08 штиль 0 15 км 6/4 800 м
[Cu med, cong Ac trans Ci sp]
+23.6 +20.4 82 +29 +29 душно 1016.7 988.2
06 22.08 С 2 10 км 6/4 800 м
[Cu med, cong Ac trans Ci sp]
+22.2 +20.2 88 +28 +28 душно 1017.1 988.4 +22.2
09 22.08 С 4 10 км 8/6 300 м
[Cu med, cong Ac trans]
+26.3 +19.9 68 +32 +34 очень
душно
1017.5 989.2
12 22.08 С 4 10 км 3/3 800 м
[Cu med, cong]
+31.4 +18.0 45 +36 +44 очень
душно
1016.0 988.2
15 22.08 С 7 10 км ясно +29.9 +19.4 53 +36 +38 очень
душно
1014.6 986.7
18 22.08 С 6 10 км ясно +29.4 +18.3 51 +34 +34 очень
душно
1014.6 986.7 +32.7
21 22.08 С 2 10 км ясно +25.0 +14.9 53 +28 +28 жарко 1017.0 988.6

 

Местоположение метеостанции Аэропорт Messali El Hadj (Алжир): широта 35.02 долгота -1.47 высота над уровнем моря 247 м.

В архиве по умолчанию представлена погода в Аэропорту Messali El Hadj за последнюю неделю. Архивные данные за месяц целиком и за предыдущие месяцы, начиная с января 2011 года, Вы можете получить, выбрав интересующий диапазон дат из раскрывающегося списка и нажав кнопку "Ввод!".


*Определитесь, кто Вы:
робот инопланетянин человек

Внимание! Время в таблицах - всемирное. Для получения местного времени необходимо прибавить поправку, которая равна 1 ч.

Смотрите также архив погоды в соседних городах и на ближайших метеорологических станциях:

Погода в Бени-Сафе (Алжир) (33 км)
Погода в Багнии (Алжир) (36 км)
Погода в Газауэте (Алжир) (37 км)
Погода в Уджде (Марокко) (50 км)
Погода в Сиди-Бель-Аббесе (Алжир) (80 км)
Погода в Оран-Тафрауи (Алжир) (100 км)
Погода в Оран аэропорту (Алжир) (104 км)
Погода в Оране (Алжир) (106 км)
Погода в Мелилье (Испания) (138 км)
Погода в Арзеве (Алжир) (141 км)

Пояснения к столбцам:

Ветер - указаны скорость ветра в м/с - средняя за 10 мин, порывы в срок и между сроками (в фигурных скобках) и направление, откуда дует ветер: С - северный, СВ - северо-восточный, В - восточный, ЮВ - юго-восточный, Ю - южный, ЮЗ - юго-западный, З - западный, СЗ - северо-западный.
Видимость - горизонтальная дальность видимости в метрах или километрах. При видимости от 1 до 10 км при отсутствии осадков обычно наблюдается дымка, при ухудшении видимости до 1 км и менее - туман. В сухую погоду видимость может ухудшаться дымом, пылью или мглою.
Явления - указаны атмосферные явления, наблюдавшиеся в срок или в последний час перед сроком; фигурными скобками обозначены явления, наблюдавшиеся между сроками (за 1-3 часа до срока); квадратными скобками обозначены град или гололедные отложения с указанием их диаметра в мм.
Облачность - указаны через наклонную черту общая и нижняя облачность в баллах и высота нижней границы облаков в метрах; квадратными скобками обозначены формы облаков: Ci - перистые, Cs - перисто-слоистые, Cc - перисто-кучевые, Ac - высококучевые, As - высокослоистые, Sc - слоисто-кучевые, Ns - слоисто-дождевые, Cu - кучевые, Cb - кучево-дождевые. Подробнее классификацию облаков см. в Атласе облаков (PDF).
T - Температура воздуха - температура, измеренная на высоте 2 м над землей.
Td - Температура точки росы - температура, при понижении до которой содержащийся в воздухе водяной пар достигнет насыщения.
f - Относительная влажность воздуха - влажноcть воздуха, измеренная на высоте 2 м над землей.
Te - Эффективная температура - температура, которую ощущает одетый по сезону человек в тени. Характеристика душности погоды. При расчете учитывается влияние влажности воздуха и скорости ветра на теплоощущения человека.
Tes - Эффективная температура на солнце - температура, которую ощущает человек, с поправкой на солнечный нагрев. Характеристика знойности погоды. Зависит от высоты солнца над горизонтом, облачности и скорости ветра. Ночью, в пасмурную погоду, а также при ветре 12 м/с и более поправка равна нулю.
P - Атмосферное давление - приведенное к уровню моря атмосферное давление.
Po - Атмосферное давление - измеренное на уровне метеостанции атмосферное давление.
Tmin - Минимальная температура - минимум температуры воздуха на высоте 2 м над землей.
Tmax - Максимальная температура - максимум температуры воздуха на высоте 2 м над землей.
R - Количество осадков - Количество выпавших осадков за период времени, мм. При наведении курсора мыши на число - период времени, за который выпало указанное количество осадков.
R24 - Количество осадков - Количество выпавших осадков за 24 часа, мм.
S - Снежный покров - Высота снежного покрова, см. При наведении курсора мыши на число - состояние снежного покрова и степень покрытия местности в баллах.